Wetbulb
64.01 67.75 72.80 73.79 73.48 73.87 73.45 73.28 73.06 73.17 72.54 72.16 72.04 72.00 71.98 72.16 71.82 71.97 72.68 72.44 72.54 72.12 71.17 70.23 70.02 69.84 68.95 68.46 67.86 68.03 68.61 69.04 69.84 72.32 72.97 72.43 72.41 72.37 71.75 71.84 71.92 71.43 73.20
65.26 69.06 72.02 73.37 73.93 74.18 74.17 73.71 73.12 72.66 72.22 71.80 71.66 71.37 70.92 70.95 71.10 70.82 71.36 73.03 72.60 71.82 71.06 69.95 69.78 69.22 67.73 66.98 66.52 66.40 66.55 66.64 66.79 67.21 69.76 72.12 71.65 70.87 70.90 71.06 71.38 70.69 72.28
66.79 69.81 71.49 72.63 73.79 73.92 73.69 73.63 73.00 72.60 71.68 71.37 71.30 71.13 70.75 70.55 70.70 71.18 72.01 72.34 71.94 71.32 70.30 69.72 69.13 67.67 66.66 65.47 64.86 64.66 64.71 64.64 64.71 65.21 66.10 63.96 69.50 70.56 70.08 70.19 70.60 70.50 70.95
67.54 69.39 70.90 71.54 73.33 73.63 73.33 73.18 73.05 72.86 72.57 71.80 71.48 71.26 71.44 71.31 70.79 70.81 71.99 71.47 70.85 69.79 69.16 68.72 67.62 66.00 64.87 63.56 62.87 61.96 62.09 62.20 63.06 65.15 64.02 66.34 70.02 71.34 70.42 69.88 70.00 69.70 69.91
67.22 69.07 70.44 71.25 73.10 73.45 73.15 72.88 72.92 73.02 72.99 72.24 71.78 71.86 72.06 71.30 70.96 71.45 71.41 70.64 69.86 69.17 68.34 67.41 65.77 64.66 62.68 61.57 60.28 58.93 59.46 60.93 62.19 64.49 64.83 65.61 66.04 69.30 70.89 69.60 68.98 69.14 69.67
66.64 68.62 69.75 71.61 72.99 73.41 73.08 72.91 72.83 72.65 72.34 72.36 72.28 72.28 71.51 70.97 70.64 70.58 70.23 69.83 69.07 67.76 66.77 66.02 64.55 62.88 60.79 59.59 58.09 57.65 59.63 60.49 61.28 60.48 60.32 63.41 64.55 68.11 69.11 68.95 69.39 69.01 69.36
65.29 66.94 69.41 71.15 72.23 72.91 72.93 72.82 72.66 72.55 72.52 72.94 72.74 72.03 71.44 70.60 70.62 68.92 68.75 67.86 68.17 66.18 65.33 64.61 63.23 61.28 59.26 57.66 56.31 57.25 58.09 58.08 55.94 57.32 58.02 59.90 62.50 66.80 66.47 67.55 67.86 67.82 68.03
64.50 66.01 69.01 68.75 69.99 71.34 72.00 72.08 71.94 71.97 72.09 72.16 72.41 72.06 71.89 70.97 68.46 67.19 66.73 66.53 66.56 65.74 64.58 63.88 61.83 60.13 58.22 56.06 54.93 55.87 57.42 56.16 55.01 54.05 54.29 56.07 64.02 64.04 64.32 64.37 65.07 65.59 66.35
61.45 65.78 67.28 68.92 69.06 68.28 69.42 69.88 70.71 71.24 71.48 71.68 71.94 71.67 71.11 69.16 68.32 67.26 66.16 65.84 65.92 64.90 64.19 63.19 60.47 58.77 57.24 55.05 53.71 54.66 56.88 55.77 51.72 52.09 54.55 54.65 62.45 61.72 61.91 62.42 62.98 63.46 63.93
58.55 64.86 66.08 66.94 67.97 68.84 69.10 66.92 67.84 68.99 69.67 69.93 69.77 69.02 67.81 66.78 66.83 66.03 64.39 65.57 65.31 64.74 63.88 62.83 60.08 58.69 56.88 53.99 52.03 52.70 53.91 52.19 48.01 49.17 51.49 54.03 60.59 59.98 59.62 60.07 60.80 61.47 61.90
56.70 60.09 63.95 65.84 66.87 67.16 67.05 66.11 65.36 66.57 67.32 67.42 67.18 65.78 64.07 64.04 63.70 62.35 61.91 64.24 65.79 64.95 63.47 62.28 59.88 58.55 56.25 52.08 50.36 51.64 48.48 42.59 45.81 46.34 49.11 56.10 56.60 57.70 58.37 59.06 59.31 59.93 60.46
53.24 56.80 60.66 63.59 65.21 65.57 67.74 65.75 64.48 67.37 67.72 67.66 66.99 65.16 64.07 63.39 61.45 60.72 59.85 62.23 64.06 63.29 63.70 61.80 60.00 58.26 51.52 42.16 41.09 46.82 40.78 40.76 43.13 43.95 48.31 55.09 55.71 56.56 57.74 57.51 58.40 59.48 60.28
50.75 54.45 58.91 61.95 63.97 64.73 66.05 65.84 64.38 64.41 63.78 63.92 63.75 63.45 62.56 62.42 60.91 59.85 57.61 58.37 57.97 58.26 57.18 57.93 55.67 49.59 43.12 40.89 39.75 40.47 39.97 39.62 40.94 42.06 48.39 53.64 55.73 56.95 57.52 58.30 59.74 59.98 59.38
46.15 50.37 54.76 59.67 61.85 63.49 64.48 64.44 65.27 65.64 66.29 62.96 62.66 62.62 62.81 61.73 60.57 59.22 57.68 56.04 54.63 53.59 52.30 50.96 49.27 47.39 44.08 42.28 40.80 40.00 39.45 38.92 40.04 41.26 46.33 53.59 55.22 56.64 58.01 59.35 59.06 59.21 59.72
43.73 44.16 46.86 55.97 59.62 61.63 61.97 61.56 63.08 64.21 64.81 63.51 61.21 61.48 61.56 61.78 60.19 58.36 56.39 53.88 52.73 51.25 50.11 48.39 47.42 45.22 41.31 40.15 40.10 39.83 39.10 38.65 39.33 41.99 42.32 52.17 54.97 56.74 58.23 58.83 59.42 59.37 59.89
43.54 43.55 44.64 48.81 57.89 59.31 61.20 59.90 61.25 62.12 62.29 61.40 60.96 61.19 60.36 60.63 60.50 57.30 55.01 54.04 51.49 50.57 48.98 47.90 46.68 42.72 40.11 39.35 39.35 39.23 38.90 38.53 39.25 41.78 42.43 47.39 55.31 56.43 57.63 58.25 59.01 60.33 59.48
41.93 42.87 43.82 46.12 50.83 57.30 58.65 58.86 58.62 59.17 59.38 59.45 60.23 59.71 59.72 58.93 57.28 55.35 54.89 53.42 52.96 50.14 48.63 46.70 44.27 40.60 38.69 38.33 37.88 38.55 38.44 38.41 38.73 40.56 42.61 45.78 48.43 54.24 56.55 56.41 58.01 59.20 59.23
40.45 41.19 43.08 45.33 46.54 54.17 55.46 56.53 57.75 57.84 57.69 58.03 58.49 58.80 59.78 60.34 58.29 54.59 53.91 53.67 53.38 49.92 48.17 45.05 41.72 39.32 37.95 36.73 35.74 36.20 36.75 37.84 38.21 38.84 40.42 44.31 45.55 47.07 50.39 53.17 54.72 57.78 59.55
39.32 39.99 41.41 43.17 43.67 47.52 53.40 54.66 55.28 56.04 55.99 56.15 56.49 57.13 60.03 59.38 57.93 56.58 54.14 53.65 52.07 50.56 46.29 44.85 39.33 39.08 36.94 35.79 35.88 35.04 35.28 36.19 36.96 39.01 38.43 41.75 41.46 43.59 43.91 48.27 48.84 50.18 53.81
39.10 39.57 40.07 41.50 42.00 44.92 48.92 50.85 51.79 52.74 53.26 53.96 54.60 56.70 58.19 57.13 55.33 54.34 52.97 51.78 50.87 48.58 44.74 40.82 39.52 37.08 36.75 36.13 37.46 35.73 34.11 35.41 35.60 35.26 36.66 38.45 37.36 38.91 41.00 41.78 40.39 42.89 49.98
38.29 38.71 38.95 39.17 39.71 41.91 42.60 45.67 47.49 47.97 48.02 48.33 53.97 54.73 56.10 56.53 54.26 52.55 51.87 50.47 48.60 47.48 46.16 43.39 38.09 37.11 35.46 34.56 33.78 33.08 33.05 34.02 34.49 34.30 35.21 35.44 35.62 36.54 36.72 37.83 38.51 40.38 43.19
36.25 37.39 38.05 38.38 38.44 39.14 40.81 41.24 43.93 43.32 43.62 44.27 47.15 48.38 48.58 52.56 54.00 51.83 50.10 48.89 47.52 45.09 43.15 40.98 40.10 35.65 35.86 34.85 33.12 30.79 30.13 32.14 33.18 34.31 34.27 34.85 34.07 34.80 35.36 36.43 36.64 38.25 40.99
33.98 35.10 36.93 37.57 37.98 37.86 38.57 39.47 40.20 40.11 39.90 39.95 40.23 41.44 42.64 44.58 48.54 50.21 49.87 47.02 45.85 44.69 43.25 41.49 39.71 39.13 36.35 34.15 33.90 33.60 27.89 28.53 29.11 31.30 32.67 33.25 33.33 32.71 33.60 34.49 35.71 36.60 39.40
32.12 33.57 35.27 36.29 36.44 37.20 37.53 36.78 35.65 35.17 34.50 35.39 36.23 37.07 38.38 39.22 39.71 41.46 44.32 46.80 45.29 43.58 42.87 41.60 40.96 39.72 37.85 36.10 33.40 35.35 33.34 31.94 29.18 28.86 30.60 31.46 32.27 32.88 32.18 32.77 33.67 34.96 37.83
32.11 31.33 31.93 33.68 34.14 34.44 34.62 35.79 35.42 34.44 34.83 35.31 35.47 35.10 35.76 36.56 36.96 36.59 37.12 38.50 41.42 43.73 42.09 40.98 39.96 38.64 38.30 37.65 35.66 32.63 31.43 31.80 30.92 29.22 28.87 28.69 30.10 31.29 32.87 33.33 33.23 33.74 35.83
30.58 30.16 30.79 31.84 31.96 32.35 32.22 31.91 31.66 31.24 31.32 31.21 31.69 31.33 32.66 34.30 35.01 34.97 35.24 35.19 36.10 37.19 39.08 40.92 39.81 39.21 38.77 38.20 37.12 35.65 35.02 31.92 30.90 30.51 27.80 27.92 27.73 29.56 30.22 31.36 32.45 33.83 34.10
MSLP
1015.94 1015.78 1015.98 1016.30 1016.47 1016.62 1016.87 1017.15 1017.36 1017.49 1017.57 1017.72 1017.94 1018.08 1018.24 1018.42 1018.54 1018.66 1018.71 1018.81 1018.80 1018.81 1019.03 1019.20 1019.25 1019.43 1019.62 1019.70 1019.63 1019.68 1019.61 1019.45 1019.30 1019.13 1019.03 1018.96 1019.00 1019.06 1019.19 1019.16 1019.14 1019.09 1019.03
1014.89 1015.52 1015.73 1016.08 1016.42 1016.67 1016.85 1017.15 1017.48 1017.67 1017.79 1017.96 1018.11 1018.30 1018.49 1018.62 1018.71 1018.91 1018.96 1018.95 1018.97 1018.96 1019.27 1019.52 1019.61 1019.64 1019.73 1019.85 1019.92 1019.90 1019.81 1019.75 1019.64 1019.64 1019.57 1019.35 1019.33 1019.47 1019.48 1019.50 1019.56 1019.45 1019.31
1014.98 1015.39 1015.75 1015.90 1016.19 1016.50 1016.78 1017.05 1017.34 1017.64 1017.89 1018.13 1018.34 1018.48 1018.62 1018.74 1018.86 1018.98 1019.03 1019.15 1019.23 1019.30 1019.58 1019.76 1019.91 1019.94 1019.93 1019.99 1020.07 1020.10 1020.10 1020.04 1019.94 1019.88 1019.78 1019.78 1019.55 1019.65 1019.74 1019.84 1019.85 1019.81 1019.65
1014.74 1015.24 1015.75 1016.00 1016.16 1016.35 1016.60 1016.93 1017.28 1017.57 1017.76 1018.00 1018.30 1018.56 1018.73 1018.83 1018.95 1019.03 1019.16 1019.32 1019.46 1019.60 1019.83 1020.01 1020.19 1020.19 1020.23 1020.25 1020.16 1020.32 1020.24 1020.20 1020.17 1019.94 1020.02 1019.93 1019.77 1019.75 1019.82 1020.09 1020.12 1020.22 1020.16
1014.91 1015.13 1015.45 1015.89 1016.24 1016.59 1016.91 1017.07 1017.23 1017.53 1017.78 1017.94 1018.22 1018.48 1018.67 1018.88 1019.07 1019.22 1019.40 1019.51 1019.68 1019.88 1020.00 1020.13 1020.35 1020.39 1020.48 1020.51 1020.48 1020.54 1020.41 1020.39 1020.27 1020.15 1020.22 1020.24 1020.11 1019.97 1020.02 1020.23 1020.33 1020.50 1020.56
1014.97 1015.20 1015.44 1015.75 1016.13 1016.48 1016.85 1017.18 1017.50 1017.71 1017.87 1018.05 1018.27 1018.52 1018.76 1019.00 1019.22 1019.35 1019.57 1019.75 1019.79 1020.12 1020.23 1020.36 1020.61 1020.61 1020.70 1020.70 1020.81 1020.76 1020.69 1020.61 1020.53 1020.56 1020.50 1020.50 1020.27 1020.32 1020.37 1020.49 1020.50 1020.64 1020.64
1015.06 1015.19 1015.45 1015.73 1015.98 1016.29 1016.65 1016.95 1017.22 1017.49 1017.79 1018.03 1018.22 1018.44 1018.77 1019.04 1019.23 1019.38 1019.57 1019.78 1019.98 1020.24 1020.45 1020.56 1020.77 1020.85 1020.98 1021.00 1021.01 1021.02 1020.86 1021.02 1020.94 1021.07 1020.88 1020.91 1020.62 1020.64 1020.78 1020.82 1020.94 1020.91 1020.75
1015.13 1015.27 1015.44 1015.73 1016.00 1016.28 1016.54 1016.78 1017.01 1017.26 1017.51 1017.77 1018.09 1018.34 1018.61 1018.94 1019.27 1019.58 1019.86 1020.03 1020.12 1020.35 1020.68 1020.81 1021.00 1021.09 1021.16 1021.28 1021.29 1021.24 1021.08 1021.14 1021.27 1021.48 1021.43 1021.34 1021.00 1021.11 1021.17 1021.21 1021.17 1021.22 1021.16
1015.12 1015.38 1015.59 1015.72 1015.92 1016.19 1016.49 1016.76 1016.96 1017.19 1017.43 1017.61 1017.88 1018.15 1018.41 1018.79 1019.11 1019.55 1019.96 1020.15 1020.25 1020.47 1020.71 1020.90 1021.10 1021.17 1021.31 1021.43 1021.42 1021.35 1021.30 1021.38 1021.53 1021.68 1021.61 1021.52 1021.27 1021.40 1021.43 1021.37 1021.34 1021.38 1021.39
1015.21 1015.15 1015.28 1015.53 1015.78 1015.99 1016.22 1016.47 1016.80 1017.15 1017.44 1017.71 1017.93 1018.16 1018.35 1018.73 1018.97 1019.25 1019.61 1019.91 1020.05 1020.39 1020.66 1020.90 1021.17 1021.37 1021.48 1021.60 1021.64 1021.68 1021.62 1021.57 1021.68 1021.85 1021.88 1021.66 1021.37 1021.57 1021.59 1021.58 1021.54 1021.48 1021.41
1015.36 1015.38 1015.29 1015.42 1015.65 1015.94 1016.18 1016.37 1016.53 1016.80 1017.06 1017.44 1017.75 1018.05 1018.39 1018.71 1018.97 1019.30 1019.62 1019.86 1019.98 1020.26 1020.56 1020.91 1021.27 1021.42 1021.67 1021.85 1021.82 1021.76 1021.87 1021.92 1022.01 1022.19 1021.85 1021.62 1021.40 1021.53 1021.59 1021.66 1021.52 1021.41 1021.43
1015.22 1015.07 1015.13 1015.17 1015.34 1015.71 1016.04 1016.34 1016.50 1016.66 1016.89 1017.08 1017.40 1017.83 1018.31 1018.72 1019.10 1019.39 1019.59 1019.87 1020.13 1020.37 1020.54 1020.83 1021.17 1021.53 1021.90 1022.17 1022.09 1021.94 1022.01 1022.07 1022.44 1022.39 1022.16 1021.91 1021.51 1021.49 1021.53 1021.47 1021.49 1021.38 1021.38
1014.98 1014.86 1014.67 1014.68 1014.82 1015.15 1015.39 1015.70 1016.28 1016.67 1017.01 1017.23 1017.46 1017.74 1018.13 1018.58 1019.08 1019.48 1019.97 1020.14 1020.27 1020.40 1020.74 1020.89 1021.21 1021.76 1022.06 1022.10 1022.12 1022.12 1022.19 1022.53 1022.51 1022.39 1022.11 1021.98 1021.81 1021.73 1021.56 1021.44 1021.47 1021.43 1021.32
1015.70 1015.71 1015.33 1014.77 1014.60 1014.74 1015.14 1015.54 1015.80 1016.18 1016.63 1017.15 1017.41 1017.77 1018.12 1018.56 1019.06 1019.38 1019.78 1020.21 1020.56 1020.81 1021.08 1021.29 1021.59 1021.84 1022.09 1022.07 1022.05 1022.14 1022.22 1022.30 1022.38 1022.42 1022.30 1022.02 1021.90 1021.84 1021.53 1021.55 1021.57 1021.37 1021.33
1016.38 1016.11 1015.34 1014.99 1015.10 1014.73 1015.08 1015.38 1015.66 1015.99 1016.37 1016.75 1017.22 1017.58 1017.77 1018.31 1018.87 1019.30 1019.68 1020.17 1020.49 1020.88 1021.19 1021.61 1021.93 1022.17 1022.27 1022.13 1022.02 1022.01 1022.09 1022.23 1022.35 1022.35 1022.35 1022.16 1022.06 1021.82 1021.55 1021.42 1021.40 1021.34 1021.39
1017.15 1016.52 1015.69 1014.97 1014.63 1014.87 1014.98 1015.18 1015.58 1015.90 1016.18 1016.56 1016.90 1017.23 1017.54 1017.83 1018.30 1018.93 1019.49 1020.03 1020.52 1020.78 1021.22 1021.58 1021.85 1022.20 1022.39 1022.38 1022.31 1022.25 1022.27 1022.21 1022.21 1022.32 1022.30 1022.21 1022.04 1021.87 1021.57 1021.40 1021.30 1021.22 1021.24
1018.06 1017.24 1016.39 1015.47 1014.64 1014.80 1015.08 1014.93 1015.41 1015.82 1016.22 1016.58 1016.82 1017.07 1017.37 1017.75 1018.16 1018.50 1018.95 1019.60 1020.15 1020.54 1021.00 1021.61 1022.07 1022.45 1022.75 1022.71 1022.53 1022.41 1022.46 1022.47 1022.47 1022.50 1022.50 1022.40 1022.22 1021.94 1021.61 1021.38 1021.27 1021.18 1021.13
1018.72 1017.91 1017.09 1016.40 1015.58 1015.17 1015.34 1015.51 1015.56 1015.83 1016.25 1016.57 1016.83 1016.98 1017.22 1017.44 1017.79 1018.33 1018.66 1018.95 1019.59 1020.27 1020.77 1021.37 1021.95 1022.49 1022.74 1022.88 1022.91 1022.90 1022.83 1022.68 1022.57 1022.49 1022.35 1022.22 1022.18 1022.00 1021.80 1021.66 1021.52 1021.22 1021.10
1019.39 1018.67 1017.87 1017.10 1016.54 1016.12 1015.80 1015.78 1016.13 1016.26 1016.54 1016.68 1016.87 1017.10 1017.12 1017.35 1017.62 1017.99 1018.41 1018.62 1019.08 1019.89 1020.60 1021.04 1021.69 1022.00 1022.60 1022.86 1022.98 1023.02 1022.95 1022.82 1022.58 1022.38 1022.43 1022.27 1022.17 1022.07 1022.03 1021.76 1021.68 1021.62 1021.45
1020.13 1019.55 1018.82 1018.27 1017.70 1017.02 1016.79 1016.78 1016.97 1017.27 1017.49 1017.48 1017.33 1017.31 1017.27 1017.51 1017.77 1018.13 1018.48 1018.90 1019.33 1019.98 1020.68 1021.17 1021.52 1021.97 1022.02 1022.26 1022.80 1023.14 1023.25 1023.06 1022.83 1022.68 1022.44 1022.33 1022.30 1022.20 1022.16 1022.09 1021.98 1021.79 1021.61
1020.68 1020.26 1020.06 1019.46 1019.07 1018.40 1018.01 1018.26 1018.39 1018.92 1018.88 1018.70 1018.19 1017.95 1017.84 1017.95 1018.11 1018.28 1018.67 1019.14 1019.67 1020.18 1020.18 1020.78 1021.36 1021.94 1022.34 1022.54 1023.14 1023.26 1023.01 1022.88 1022.90 1022.74 1022.58 1022.41 1022.26 1022.15 1022.20 1022.24 1022.27 1022.16 1021.87
1021.87 1021.32 1020.92 1020.82 1020.59 1020.12 1019.80 1019.66 1019.58 1019.65 1019.87 1020.03 1019.74 1019.37 1019.11 1018.79 1018.70 1018.78 1018.97 1019.21 1019.66 1020.23 1020.70 1020.99 1021.24 1021.83 1022.11 1022.41 1023.18 1023.87 1023.54 1022.82 1022.16 1022.11 1022.26 1022.19 1022.13 1022.11 1022.08 1021.94 1022.01 1022.02 1022.02
1022.90 1022.55 1022.19 1021.98 1021.76 1021.47 1021.07 1020.58 1020.41 1020.33 1020.55 1020.71 1020.71 1020.51 1020.70 1020.31 1019.91 1019.74 1019.51 1019.73 1020.03 1020.18 1020.59 1021.01 1021.31 1021.52 1021.84 1022.20 1022.19 1022.73 1023.63 1023.28 1022.54 1021.82 1021.78 1021.83 1021.91 1022.00 1021.91 1021.85 1021.78 1021.68 1021.74
1024.42 1023.56 1022.96 1022.98 1022.62 1022.56 1022.29 1022.17 1022.45 1022.83 1023.02 1023.24 1022.98 1022.38 1021.75 1021.51 1021.53 1021.37 1020.86 1020.48 1020.50 1020.71 1020.89 1020.90 1021.03 1021.47 1021.82 1022.10 1022.43 1022.33 1022.48 1022.62 1022.87 1022.57 1022.03 1021.79 1021.83 1021.76 1021.68 1021.68 1021.46 1021.38 1021.48
1024.61 1024.49 1024.30 1023.98 1023.61 1023.51 1023.47 1023.38 1023.30 1023.59 1024.14 1023.94 1023.69 1023.50 1023.08 1022.65 1022.42 1022.29 1022.16 1021.81 1021.39 1021.14 1021.19 1021.30 1021.18 1021.36 1021.50 1021.67 1021.75 1021.91 1022.11 1022.29 1022.43 1022.81 1022.47 1021.95 1021.90 1021.15 1021.13 1021.00 1021.10 1021.00 1020.78
1025.55 1024.95 1024.70 1024.98 1024.64 1024.30 1024.35 1024.59 1024.44 1024.57 1024.54 1024.40 1024.37 1024.39 1024.56 1024.18 1023.52 1023.08 1022.91 1022.73 1022.29 1021.86 1021.69 1021.56 1021.44 1021.44 1021.38 1021.41 1021.46 1021.56 1021.42 1021.40 1021.70 1022.03 1022.34 1022.02 1021.84 1020.87 1020.63 1020.71 1020.72 1020.44 1020.48
Wind_Speed
6 11 16 16 16 15 14 12 12 12 12 12 11 10 9 9 9 8 9 9 10 12 10 9 9 11 10 10 9 8 8 8 11 10 10 11 12 13 12 12 11 7 13
9 12 17 17 16 15 14 14 12 11 11 11 11 10 9 8 7 6 5 11 11 12 10 8 8 10 10 9 8 7 8 8 9 9 8 7 11 11 12 11 9 8 12
10 12 13 17 16 15 13 13 12 12 12 11 10 10 9 8 6 5 5 9 11 10 8 8 7 8 9 8 7 6 6 7 8 9 5 2 4 10 11 10 9 10 11
11 12 11 13 16 15 15 14 12 12 12 13 11 10 9 8 7 6 9 10 9 7 6 5 6 7 7 6 6 4 4 5 8 6 4 2 3 8 9 10 8 9 9
8 11 11 14 15 14 13 14 14 13 12 12 12 11 12 10 6 8 11 10 9 7 6 6 5 6 5 5 5 3 3 5 8 6 6 5 4 8 10 8 8 7 6
7 9 11 17 16 15 15 14 13 13 13 13 13 12 11 11 9 10 9 9 9 6 4 5 4 5 4 5 5 4 5 7 7 5 6 6 5 8 8 8 7 6 6
7 7 10 17 17 16 16 15 15 14 13 13 14 14 12 12 10 6 9 5 7 3 3 4 4 4 4 4 5 5 6 7 5 5 6 5 5 7 6 7 6 6 7
7 6 9 13 13 14 15 14 15 14 13 13 13 13 14 13 11 9 7 7 7 5 4 4 3 4 4 4 5 5 7 8 6 5 5 4 6 5 5 3 3 3 4
6 6 6 9 11 13 13 12 13 14 13 11 11 13 13 14 14 13 10 9 8 7 6 5 3 3 3 4 4 6 9 9 6 4 3 3 4 4 3 2 2 1 1
6 7 8 7 8 9 9 13 13 12 11 10 10 10 10 12 13 14 12 8 9 10 8 7 6 6 4 3 4 5 7 9 6 4 3 3 5 3 2 1 1 0 0
3 6 6 8 8 7 6 7 13 15 16 15 12 10 8 5 7 9 8 9 11 10 10 9 7 6 4 2 3 4 6 3 4 2 1 2 2 1 1 0 0 0 0
7 7 8 8 9 8 7 6 5 6 6 6 6 6 5 6 5 5 7 10 8 9 9 10 10 8 5 1 1 4 2 3 2 1 1 2 1 3 3 2 3 3 3
6 3 9 10 10 10 9 6 3 2 2 2 5 6 6 5 4 3 2 3 3 6 4 6 5 3 4 3 1 2 3 3 2 1 1 1 2 4 4 4 5 4 4
6 7 8 7 9 10 5 6 6 6 5 4 4 6 6 4 5 5 4 4 4 2 4 4 3 4 4 4 4 3 3 3 2 1 2 1 3 5 5 6 6 5 5
10 8 9 6 7 7 6 4 5 6 7 6 5 6 5 5 5 4 4 4 4 4 4 4 4 4 3 3 4 5 5 4 4 2 1 3 4 5 8 8 6 6 6
10 12 11 7 6 5 8 7 6 4 5 5 5 6 6 5 7 6 5 5 4 4 4 4 5 5 4 3 3 3 4 3 4 4 3 2 2 3 7 7 7 8 7
10 10 13 12 6 6 6 6 5 4 4 4 4 6 7 6 5 6 6 6 5 5 6 4 2 1 1 2 3 3 3 3 3 4 4 3 1 2 4 1 7 7 8
12 13 12 12 12 4 0 1 2 3 3 4 3 4 6 7 7 6 5 6 7 5 5 4 4 3 3 3 2 3 3 3 4 4 4 3 3 1 2 2 4 9 12
10 12 14 14 14 11 7 5 4 3 1 1 2 3 5 5 6 6 4 5 8 6 4 5 3 4 4 3 3 3 3 3 4 3 5 4 4 3 2 2 1 4 3
12 12 13 12 16 12 6 5 5 5 5 5 4 2 0 2 5 4 3 4 5 4 3 3 3 1 2 4 2 2 3 4 4 4 4 3 4 4 3 4 3 3 6
14 15 16 17 15 11 6 5 5 5 4 7 6 7 6 2 2 4 2 3 3 4 7 8 3 4 1 2 3 2 2 5 6 5 4 5 5 5 4 4 3 3 4
13 14 16 15 16 12 9 4 4 2 3 3 8 11 14 10 5 1 2 4 4 3 3 4 4 2 3 4 4 2 3 4 5 6 5 5 7 4 5 6 6 6 5
13 13 14 14 15 14 12 8 7 5 5 8 10 10 11 13 13 10 5 3 1 2 4 4 3 5 4 4 5 5 1 6 3 1 6 5 6 5 5 5 6 6 6
10 10 12 13 14 14 14 11 13 9 7 5 5 5 9 12 12 13 12 10 4 1 3 4 4 4 2 4 2 6 3 4 3 5 2 4 4 6 6 5 6 6 6
7 8 8 11 13 13 13 12 9 10 6 6 8 12 12 11 12 13 10 10 9 5 4 5 3 5 4 3 4 3 3 2 1 2 5 4 2 5 6 7 6 6 7
7 7 9 10 12 12 12 12 12 11 9 9 10 9 8 8 9 13 12 10 8 8 7 5 5 5 5 6 4 4 4 5 5 4 4 5 5 5 5 5 7 7 6
Wind_Direction
205 173 175 176 170 165 160 154 147 144 143 141 139 132 124 120 113 112 117 137 129 112 99 92 93 87 76 69 66 64 65 35 37 51 86 85 75 73 68 56 45 46 63
147 176 172 174 173 168 161 156 151 149 148 148 144 140 138 132 126 128 124 134 120 116 106 100 99 96 87 75 63 52 49 41 33 23 29 80 94 80 72 64 57 49 55
150 168 174 173 171 167 161 156 156 155 155 155 154 152 147 141 138 128 140 127 116 109 109 105 106 101 99 91 79 63 49 41 30 11 334 355 120 98 89 70 65 62 60
155 165 175 177 175 170 165 163 163 165 164 162 163 164 158 148 156 150 141 123 115 116 116 111 107 102 93 86 75 53 56 57 41 54 50 50 79 104 106 89 77 66 66
155 167 173 174 177 176 174 173 170 173 174 171 173 175 167 152 147 147 130 124 120 117 119 121 116 104 90 75 65 40 49 50 74 77 71 62 47 68 76 88 101 83 81
156 169 173 175 178 178 178 180 180 181 182 184 179 173 166 162 141 130 139 151 126 120 124 134 127 108 88 77 52 62 44 80 78 82 70 47 53 77 76 59 57 110 129
167 171 173 178 180 181 181 183 179 182 191 189 185 177 183 174 182 167 202 127 133 152 192 153 137 113 100 79 76 65 51 73 83 65 65 53 55 73 72 54 36 48 58
169 174 175 180 180 182 182 185 182 186 194 196 194 186 186 181 156 166 199 206 210 167 205 169 153 129 102 73 58 54 54 82 78 78 57 37 62 73 79 81 47 38 58
169 166 179 185 186 182 185 186 187 189 198 200 195 189 188 169 163 164 181 201 210 209 203 173 168 136 126 104 87 61 65 80 93 75 66 44 40 75 71 81 77 75 50
182 182 181 183 193 193 191 188 187 193 193 202 207 203 184 172 168 164 167 194 193 201 201 177 179 172 153 118 92 60 76 83 91 79 53 23 59 73 65 58 56 257 294
229 207 188 185 189 194 199 210 195 196 191 199 202 203 179 170 169 163 165 186 194 186 197 184 190 179 149 143 112 66 78 84 92 81 79 56 74 130 131 98 71 1 214
222 214 196 190 190 184 200 214 213 201 208 200 183 181 163 173 162 163 167 180 184 181 193 188 188 156 126 156 3 51 71 87 100 100 25 7 174 199 197 202 212 188 160
252 225 203 197 193 189 197 186 178 188 200 201 191 169 162 157 157 152 159 183 175 180 174 176 167 137 168 168 180 142 126 141 140 118 13 352 308 230 212 202 194 188 189
293 309 291 227 191 196 186 189 195 191 197 198 186 176 165 153 169 173 169 180 181 175 172 158 158 169 198 211 185 165 152 144 150 149 272 223 281 242 223 201 211 200 193
13 340 319 228 228 198 188 180 181 192 198 197 175 184 163 167 178 166 173 174 178 165 171 171 176 189 214 205 188 175 170 167 172 173 208 243 277 264 217 208 204 205 200
353 352 339 329 227 196 193 179 191 181 187 176 179 188 185 174 176 177 170 179 185 176 176 177 180 190 209 205 209 199 195 180 177 185 197 247 246 287 229 214 215 206 204
347 341 356 345 316 208 215 180 163 178 164 173 190 192 192 184 183 174 172 173 193 179 164 158 170 158 245 286 224 208 197 207 198 195 200 205 220 39 62 203 230 220 227
359 2 360 3 0 5 58 23 111 151 164 180 189 192 204 203 185 177 177 184 187 170 168 166 163 178 205 209 223 242 236 225 223 218 210 205 210 212 31 44 14 255 224
10 8 10 10 13 4 32 60 49 59 80 167 173 197 224 189 190 186 192 191 174 175 174 175 159 158 181 205 227 237 247 244 239 233 225 216 214 213 221 259 309 333 320
21 22 22 22 16 9 21 33 38 44 25 17 12 326 201 171 174 163 171 167 155 160 151 157 161 168 176 170 173 241 298 279 266 249 231 229 231 232 231 241 264 266 273
32 33 25 23 15 23 10 10 26 26 2 17 20 24 38 51 145 155 167 143 144 194 192 188 133 177 209 136 94 341 272 255 261 245 236 234 231 223 221 234 246 266 277
34 34 34 32 26 23 22 4 32 21 25 17 13 23 20 10 15 18 191 194 172 159 160 178 168 152 181 178 143 62 294 303 246 219 222 222 227 219 223 220 226 237 247
32 30 36 35 34 32 27 27 26 27 21 17 16 21 18 16 12 6 6 24 353 162 190 201 197 194 201 215 209 157 82 246 338 342 238 225 218 218 225 225 230 229 229
20 32 42 39 41 37 34 43 47 49 36 3 354 355 13 24 27 20 12 6 354 341 253 220 207 228 143 209 258 247 207 160 219 319 295 255 231 236 221 229 224 225 225
34 34 33 44 43 39 43 44 56 59 41 29 23 17 12 10 18 17 13 14 10 357 321 283 245 212 207 211 208 191 203 203 153 171 284 305 309 237 229 221 219 227 206
21 39 45 48 45 43 44 41 52 53 48 41 31 29 13 8 10 13 8 4 1 6 358 329 295 277 250 244 256 235 213 190 198 195 229 253 239 267 236 214 220 226 213